,,,PA_Meas_PMT16A,,PR_Meas_QMR101_102,,RH_Meas_QMH101,,SR_Meas_QMS101,,TA_Meas_QMH101,,GenWind,,GenWind,
date,time,status,PA,status,PR,status,RH,status,SR,status,TA,status,DirAvg,status,SpdAvg,
2009-12-15, 00:00:05,VALID,1005.09,VALID,0,VALID,93.6064,VALID,0,VALID,24.1689,VALID,343,VALID,0,
2009-12-15, 00:01:05,VALID,1005.09,VALID,0,VALID,93.5758,VALID,0,VALID,24.2291,VALID,343,VALID,0,
2009-12-15, 00:02:05,VALID,1005.09,VALID,0,VALID,93.4538,VALID,0,VALID,24.2291,VALID,343,VALID,0,
2009-12-15, 00:03:05,VALID,1005.08,VALID,0,VALID,93.3851,VALID,0,VALID,24.2486,VALID,26,VALID,0.512891,
2009-12-15, 00:04:05,VALID,1005.06,VALID,0,VALID,93.2631,VALID,0,VALID,24.3088,VALID,26,VALID,0,
2009-12-15, 00:05:05,VALID,1005.06,VALID,0,VALID,93.1105,VALID,0,VALID,24.2662,VALID,26,VALID,0,
2009-12-15, 00:06:05,VALID,1005.05,VALID,0,VALID,93.0418,VALID,0,VALID,24.2875,VALID,3,VALID,0,
2009-12-15, 00:07:05,VALID,1005.06,VALID,0,VALID,92.9503,VALID,0,VALID,24.2894,VALID,356,VALID,0,
2009-12-15, 00:08:05,VALID,1005.06,VALID,0,VALID,92.874,VALID,0,VALID,24.2468,VALID,356,VALID,0,
2009-12-15, 00:09:05,VALID,1005.04,VALID,0,VALID,92.9121,VALID,0.100563,VALID,24.2699,VALID,356,VALID,0,
2009-12-15, 00:10:05,VALID,1005.04,VALID,0,VALID,93.0037,VALID,0,VALID,24.2486,VALID,356,VALID,0,
2009-12-15, 00:11:05,VALID,1005.05,VALID,0,VALID,92.9961,VALID,0,VALID,24.2486,VALID,356,VALID,0,
2009-12-15, 00:12:05,VALID,1005.02,VALID,0,VALID,92.9808,VALID,0,VALID,24.2291,VALID,356,VALID,0,
2009-12-15, 00:13:05,VALID,1005.02,VALID,0,VALID,93.0113,VALID,0,VALID,24.2291,VALID,356,VALID,0,
2009-12-15, 00:14:05,VALID,1005,VALID,0,VALID,93.0266,VALID,0.100563,VALID,24.2255,VALID,356,VALID,0,
2009-12-15, 00:15:05,VALID,1004.98,VALID,0,VALID,93.0418,VALID,0.100563,VALID,24.2255,VALID,356,VALID,0,
2009-12-15, 00:16:05,VALID,1004.96,VALID,0,VALID,93.08,VALID,0,VALID,24.2273,VALID,356,VALID,0,
2009-12-15, 00:17:05,VALID,1004.97,VALID,0,VALID,93.1029,VALID,0,VALID,24.2662,VALID,356,VALID,0,
2009-12-15, 00:18:05,VALID,1004.93,VALID,0,VALID,93.0952,VALID,0.100563,VALID,24.2681,VALID,356,VALID,0,
2009-12-15, 00:19:05,VALID,1004.91,VALID,0,VALID,92.9884,VALID,0.100563,VALID,24.2468,VALID,356,VALID,0,
2009-12-15, 00:20:05,VALID,1004.94,VALID,0,VALID,93.0037,VALID,0.100563,VALID,24.2468,VALID,356,VALID,0,
2009-12-15, 00:21:05,VALID,1004.9,VALID,0,VALID,93.0418,VALID,0.100563,VALID,24.2662,VALID,360,VALID,0,
2009-12-15, 00:22:05,VALID,1004.93,VALID,0,VALID,93.0037,VALID,0,VALID,24.2662,VALID,360,VALID,0,
2009-12-15, 00:23:05,VALID,1004.93,VALID,0,VALID,92.9808,VALID,0.100563,VALID,24.2644,VALID,360,VALID,0,
2009-12-15, 00:24:05,VALID,1004.91,VALID,0,VALID,92.9732,VALID,0.100563,VALID,24.2662,VALID,360,VALID,0,
2009-12-15, 00:25:05,VALID,1004.9,VALID,0,VALID,92.9732,VALID,0.100563,VALID,24.2662,VALID,360,VALID,0,
2009-12-15, 00:26:05,VALID,1004.91,VALID,0,VALID,93.0037,VALID,0.100563,VALID,24.2662,VALID,360,VALID,0,
2009-12-15, 00:27:05,VALID,1004.88,VALID,0,VALID,93.0495,VALID,0.100563,VALID,24.2468,VALID,360,VALID,0,
2009-12-15, 00:28:05,VALID,1004.87,VALID,0,VALID,93.0723,VALID,0,VALID,24.2486,VALID,360,VALID,0,
2009-12-15, 00:29:05,VALID,1004.87,VALID,0,VALID,93.0876,VALID,0,VALID,24.2486,VALID,360,VALID,0,
2009-12-15, 00:30:05,VALID,1004.83,VALID,0,VALID,93.1181,VALID,0,VALID,24.2273,VALID,360,VALID,0,
2009-12-15, 00:31:05,VALID,1004.83,VALID,0,VALID,93.1563,VALID,0,VALID,24.2078,VALID,360,VALID,0,
2009-12-15, 00:32:05,VALID,1004.83,VALID,0,VALID,93.1563,VALID,0,VALID,24.2486,VALID,360,VALID,0,
2009-12-15, 00:33:05,VALID,1004.83,VALID,0,VALID,93.1639,VALID,0,VALID,24.2291,VALID,360,VALID,0,
2009-12-15, 00:34:05,VALID,1004.81,VALID,0,VALID,93.2249,VALID,0,VALID,24.2273,VALID,360,VALID,0,
2009-12-15, 00:35:05,VALID,1004.8,VALID,0,VALID,93.1944,VALID,0,VALID,24.2291,VALID,360,VALID,0,
2009-12-15, 00:36:05,VALID,1004.81,VALID,0,VALID,93.2097,VALID,0,VALID,24.1902,VALID,360,VALID,0,
2009-12-15, 00:37:05,VALID,1004.82,VALID,0,VALID,93.2554,VALID,0,VALID,24.1707,VALID,360,VALID,0,
2009-12-15, 00:38:05,VALID,1004.79,VALID,0,VALID,93.3241,VALID,0,VALID,24.1707,VALID,360,VALID,0,
2009-12-15, 00:39:05,VALID,1004.79,VALID,0,VALID,93.408,VALID,0,VALID,24.1902,VALID,360,VALID,0,
2009-12-15, 00:40:05,VALID,1004.81,VALID,0,VALID,93.4309,VALID,0,VALID,24.1707,VALID,360,VALID,0,
2009-12-15, 00:41:05,VALID,1004.81,VALID,0,VALID,93.469,VALID,0,VALID,24.1707,VALID,360,VALID,0,
2009-12-15, 00:42:05,VALID,1004.78,VALID,0,VALID,93.4996,VALID,0,VALID,24.1494,VALID,360,VALID,0,
2009-12-15, 00:43:05,VALID,1004.77,VALID,0,VALID,93.5453,VALID,0,VALID,24.1707,VALID,360,VALID,0,
2009-12-15, 00:44:05,VALID,1004.73,VALID,0,VALID,93.6064,VALID,0,VALID,24.1707,VALID,341,VALID,0,
2009-12-15, 00:45:05,VALID,1004.73,VALID,0,VALID,93.6826,VALID,0,VALID,24.1902,VALID,341,VALID,0,
2009-12-15, 00:46:05,VALID,1004.69,VALID,0,VALID,93.7437,VALID,0,VALID,24.2097,VALID,340,VALID,0,
2009-12-15, 00:47:05,VALID,1004.68,VALID,0,VALID,93.7742,VALID,0,VALID,24.2097,VALID,340,VALID,0,
2009-12-15, 00:48:05,VALID,1004.67,VALID,0,VALID,93.7971,VALID,0,VALID,24.2078,VALID,340,VALID,0,
2009-12-15, 00:49:05,VALID,1004.65,VALID,0,VALID,93.8276,VALID,0,VALID,24.2078,VALID,340,VALID,0,
2009-12-15, 00:50:05,VALID,1004.65,VALID,0,VALID,93.8123,VALID,0,VALID,24.2681,VALID,340,VALID,0,
2009-12-15, 00:51:05,VALID,1004.63,VALID,0,VALID,93.8123,VALID,0,VALID,24.2681,VALID,340,VALID,0,
2009-12-15, 00:52:05,VALID,1004.65,VALID,0,VALID,93.8123,VALID,0,VALID,24.307,VALID,342,VALID,0.450781,
2009-12-15, 00:53:05,VALID,1004.66,VALID,0,VALID,93.7589,VALID,0,VALID,24.3459,VALID,351,VALID,0.0316406,
2009-12-15, 00:54:05,VALID,1004.6,VALID,0,VALID,93.5682,VALID,0,VALID,24.383,VALID,351,VALID,0,
2009-12-15, 00:55:05,VALID,1004.62,VALID,0,VALID,93.347,VALID,0,VALID,24.4043,VALID,349,VALID,0,
2009-12-15, 00:56:05,VALID,1004.61,VALID,0,VALID,93.141,VALID,0,VALID,24.4433,VALID,349,VALID,0,
2009-12-15, 00:57:05,VALID,1004.59,VALID,0,VALID,92.935,VALID,0,VALID,24.422,VALID,349,VALID,0,
2009-12-15, 00:58:05,VALID,1004.59,VALID,0,VALID,92.7748,VALID,0,VALID,24.4433,VALID,348,VALID,0.0269531,
2009-12-15, 00:59:05,VALID,1004.56,VALID,0,VALID,92.607,VALID,0,VALID,24.5406,VALID,43,VALID,0.929297,
2009-12-15, 01:00:05,VALID,1004.55,VALID,0,VALID,92.1874,VALID,0,VALID,24.5972,VALID,67,VALID,0.0695312,
2009-12-15, 01:01:05,VALID,1004.55,VALID,0,VALID,91.7831,VALID,0,VALID,24.6574,VALID,67,VALID,0,
2009-12-15, 01:02:05,VALID,1004.52,VALID,0,VALID,91.5237,VALID,0,VALID,24.6556,VALID,67,VALID,0,
2009-12-15, 01:03:05,VALID,1004.51,VALID,0,VALID,91.4245,VALID,0,VALID,24.6964,VALID,67,VALID,0.283984,
2009-12-15, 01:04:05,VALID,1004.5,VALID,0,VALID,91.249,VALID,0,VALID,24.675,VALID,67,VALID,0.00351562,
2009-12-15, 01:05:05,VALID,1004.48,VALID,0,VALID,91.1117,VALID,0,VALID,24.6964,VALID,67,VALID,0,
2009-12-15, 01:06:05,VALID,1004.47,VALID,0,VALID,91.249,VALID,0,VALID,24.675,VALID,67,VALID,0,
2009-12-15, 01:07:05,VALID,1004.46,VALID,0,VALID,91.2872,VALID,0,VALID,24.6964,VALID,67,VALID,0.00234375,
2009-12-15, 01:08:05,VALID,1004.46,VALID,0,VALID,91.3787,VALID,0,VALID,24.6769,VALID,67,VALID,0.149609,
2009-12-15, 01:09:05,VALID,1004.43,VALID,0,VALID,91.4855,VALID,0,VALID,24.6361,VALID,67,VALID,0,
2009-12-15, 01:10:05,VALID,1004.44,VALID,0,VALID,91.5008,VALID,0,VALID,24.638,VALID,67,VALID,0,
2009-12-15, 01:11:05,VALID,1004.43,VALID,0,VALID,91.5542,VALID,0,VALID,24.6185,VALID,67,VALID,0,
2009-12-15, 01:12:05,VALID,1004.42,VALID,0,VALID,91.661,VALID,0,VALID,24.5972,VALID,67,VALID,0.248047,
2009-12-15, 01:13:05,VALID,1004.43,VALID,0,VALID,91.7297,VALID,0,VALID,24.5777,VALID,67,VALID,0,
2009-12-15, 01:14:05,VALID,1004.41,VALID,0,VALID,91.7831,VALID,0,VALID,24.5601,VALID,67,VALID,0,
2009-12-15, 01:15:05,VALID,1004.43,VALID,0,VALID,91.8899,VALID,0,VALID,24.5406,VALID,67,VALID,0,
2009-12-15, 01:16:05,VALID,1004.44,VALID,0,VALID,92.0043,VALID,0,VALID,24.4998,VALID,67,VALID,0,
2009-12-15, 01:17:05,VALID,1004.42,VALID,0,VALID,92.1111,VALID,0,VALID,24.4804,VALID,67,VALID,0,
2009-12-15, 01:18:05,VALID,1004.4,VALID,0,VALID,92.1416,VALID,0,VALID,24.4414,VALID,67,VALID,0,
2009-12-15, 01:19:05,VALID,1004.41,VALID,0,VALID,92.1721,VALID,0,VALID,24.4238,VALID,67,VALID,0.441797,
2009-12-15, 01:20:05,VALID,1004.4,VALID,0,VALID,92.2255,VALID,0,VALID,24.3636,VALID,67,VALID,0.147266,
2009-12-15, 01:21:05,VALID,1004.38,VALID,0,VALID,92.3781,VALID,0,VALID,24.3459,VALID,67,VALID,0,
2009-12-15, 01:22:05,VALID,1004.35,VALID,0,VALID,92.5154,VALID,0,VALID,24.3265,VALID,67,VALID,0,
2009-12-15, 01:23:05,VALID,1004.36,VALID,0,VALID,92.6375,VALID,0,VALID,24.307,VALID,67,VALID,0.0570313,
2009-12-15, 01:24:05,VALID,1004.34,VALID,0,VALID,92.7672,VALID,0,VALID,24.2662,VALID,67,VALID,0,
2009-12-15, 01:25:05,VALID,1004.34,VALID,0,VALID,92.8892,VALID,0,VALID,24.2468,VALID,67,VALID,0,
2009-12-15, 01:26:05,VALID,1004.36,VALID,0,VALID,92.9732,VALID,0,VALID,24.2486,VALID,67,VALID,0,
2009-12-15, 01:27:05,VALID,1004.35,VALID,0,VALID,93.08,VALID,0,VALID,24.2273,VALID,67,VALID,0,
2009-12-15, 01:28:05,VALID,1004.31,VALID,0,VALID,93.1334,VALID,0,VALID,24.2504,VALID,67,VALID,0,
2009-12-15, 01:29:05,VALID,1004.31,VALID,0,VALID,93.2173,VALID,0,VALID,24.2097,VALID,67,VALID,0,
2009-12-15, 01:30:05,VALID,1004.33,VALID,0,VALID,93.2478,VALID,0,VALID,24.1689,VALID,67,VALID,0,
2009-12-15, 01:31:05,VALID,1004.31,VALID,0,VALID,93.3165,VALID,0,VALID,24.1902,VALID,67,VALID,0,
2009-12-15, 01:32:05,VALID,1004.32,VALID,0,VALID,93.3622,VALID,0,VALID,24.1689,VALID,67,VALID,0,
2009-12-15, 01:33:05,VALID,1004.31,VALID,0,VALID,93.4233,VALID,0,VALID,24.1707,VALID,67,VALID,0,
2009-12-15, 01:34:04,VALID,1004.3,VALID,0,VALID,93.4614,VALID,0,VALID,24.13,VALID,67,VALID,0,
2009-12-15, 01:35:04,VALID,1004.33,VALID,0,VALID,93.5148,VALID,0,VALID,24.1513,VALID,67,VALID,0,
2009-12-15, 01:36:04,VALID,1004.32,VALID,0,VALID,93.553,VALID,0,VALID,24.1105,VALID,67,VALID,0,
2009-12-15, 01:37:04,VALID,1004.33,VALID,0,VALID,93.5835,VALID,0,VALID,24.1318,VALID,67,VALID,0,
2009-12-15, 01:38:04,VALID,1004.31,VALID,0,VALID,93.5987,VALID,0,VALID,24.1105,VALID,67,VALID,0,
2009-12-15, 01:39:04,VALID,1004.3,VALID,0,VALID,93.6369,VALID,0,VALID,24.0929,VALID,67,VALID,0,
2009-12-15, 01:40:04,VALID,1004.3,VALID,0,VALID,93.7055,VALID,0,VALID,24.0716,VALID,67,VALID,0,
2009-12-15, 01:41:04,VALID,1004.31,VALID,0,VALID,93.7284,VALID,0,VALID,24.0929,VALID,67,VALID,0,
2009-12-15, 01:42:04,VALID,1004.3,VALID,0,VALID,93.7437,VALID,0,VALID,24.0734,VALID,67,VALID,0,
2009-12-15, 01:43:04,VALID,1004.28,VALID,0,VALID,93.7284,VALID,0,VALID,23.9955,VALID,67,VALID,0,
2009-12-15, 01:44:04,VALID,1004.28,VALID,0,VALID,93.7589,VALID,0,VALID,24.0345,VALID,67,VALID,0,
2009-12-15, 01:45:04,VALID,1004.27,VALID,0,VALID,93.7437,VALID,0,VALID,23.9955,VALID,67,VALID,0,
2009-12-15, 01:46:04,VALID,1004.29,VALID,0,VALID,93.8047,VALID,0,VALID,23.9955,VALID,67,VALID,0,
2009-12-15, 01:47:04,VALID,1004.28,VALID,0,VALID,93.881,VALID,0,VALID,23.9761,VALID,67,VALID,0,
2009-12-15, 01:48:04,VALID,1004.28,VALID,0,VALID,93.8886,VALID,0,VALID,23.9353,VALID,67,VALID,0,
2009-12-15, 01:49:04,VALID,1004.26,VALID,0,VALID,93.9344,VALID,0,VALID,23.9566,VALID,67,VALID,0,
2009-12-15, 01:50:04,VALID,1004.24,VALID,0,VALID,93.9344,VALID,0,VALID,23.9159,VALID,67,VALID,0,
2009-12-15, 01:51:04,VALID,1004.22,VALID,0,VALID,93.9649,VALID,0,VALID,23.8982,VALID,67,VALID,0,
2009-12-15, 01:52:04,VALID,1004.21,VALID,0,VALID,93.9725,VALID,0,VALID,23.8593,VALID,67,VALID,0,
2009-12-15, 01:53:04,VALID,1004.16,VALID,0,VALID,94.0183,VALID,0,VALID,23.8611,VALID,67,VALID,0,
2009-12-15, 01:54:04,VALID,1004.2,VALID,0,VALID,94.0717,VALID,0,VALID,23.8398,VALID,67,VALID,0,
2009-12-15, 01:55:04,VALID,1004.17,VALID,0,VALID,94.1251,VALID,0,VALID,23.8398,VALID,67,VALID,0,
2009-12-15, 01:56:04,VALID,1004.2,VALID,0,VALID,94.1862,VALID,0,VALID,23.8203,VALID,67,VALID,0,
2009-12-15, 01:57:04,VALID,1004.2,VALID,0,VALID,94.2396,VALID,0,VALID,23.8009,VALID,67,VALID,0,
2009-12-15, 01:58:04,VALID,1004.19,VALID,0,VALID,94.2701,VALID,0,VALID,23.8009,VALID,67,VALID,0.0980469,
2009-12-15, 01:59:04,VALID,1004.21,VALID,0,VALID,94.3235,VALID,0,VALID,23.7778,VALID,67,VALID,0.369922,
2009-12-15, 02:00:04,VALID,1004.18,VALID,0,VALID,94.3692,VALID,0,VALID,23.7991,VALID,67,VALID,0.272266,
2009-12-15, 02:01:04,VALID,1004.21,VALID,0,VALID,94.4455,VALID,0,VALID,23.7991,VALID,67,VALID,0.296094,
2009-12-15, 02:02:04,VALID,1004.21,VALID,0,VALID,94.4761,VALID,0,VALID,23.8185,VALID,48,VALID,0.303125,
2009-12-15, 02:03:04,VALID,1004.2,VALID,0,VALID,94.4989,VALID,0,VALID,23.7991,VALID,43,VALID,0.294922,
2009-12-15, 02:04:04,VALID,1004.19,VALID,0,VALID,94.5218,VALID,0,VALID,23.7601,VALID,43,VALID,0.2625,
2009-12-15, 02:05:04,VALID,1004.18,VALID,0,VALID,94.5218,VALID,0.100563,VALID,23.7601,VALID,43,VALID,0.396484,
2009-12-15, 02:06:04,VALID,1004.18,VALID,0,VALID,94.5218,VALID,0.100563,VALID,23.7407,VALID,43,VALID,0,
2009-12-15, 02:07:04,VALID,1004.15,VALID,0,VALID,94.5295,VALID,0,VALID,23.7017,VALID,43,VALID,0,
2009-12-15, 02:08:04,VALID,1004.15,VALID,0,VALID,94.5752,VALID,0,VALID,23.7017,VALID,42,VALID,0,
2009-12-15, 02:09:04,VALID,1004.14,VALID,0,VALID,94.6057,VALID,0.100563,VALID,23.7017,VALID,42,VALID,0,
2009-12-15, 02:10:04,VALID,1004.16,VALID,0,VALID,94.6286,VALID,0.100563,VALID,23.6628,VALID,42,VALID,0,
2009-12-15, 02:11:04,VALID,1004.17,VALID,0,VALID,94.6363,VALID,0,VALID,23.6628,VALID,42,VALID,0,
2009-12-15, 02:12:04,VALID,1004.15,VALID,0,VALID,94.6515,VALID,0,VALID,23.6628,VALID,42,VALID,0,
2009-12-15, 02:13:04,VALID,1004.15,VALID,0,VALID,94.682,VALID,0,VALID,23.6239,VALID,42,VALID,0,
2009-12-15, 02:14:04,VALID,1004.17,VALID,0,VALID,94.6897,VALID,0,VALID,23.6841,VALID,42,VALID,0,
2009-12-15, 02:15:04,VALID,1004.14,VALID,0,VALID,94.7431,VALID,0,VALID,23.6628,VALID,42,VALID,0,
2009-12-15, 02:16:04,VALID,1004.13,VALID,0,VALID,94.7507,VALID,0,VALID,23.6628,VALID,42,VALID,0,
2009-12-15, 02:17:04,VALID,1004.11,VALID,0,VALID,94.7812,VALID,0.100563,VALID,23.6434,VALID,42,VALID,0,
2009-12-15, 02:18:04,VALID,1004.1,VALID,0,VALID,94.7812,VALID,0.100563,VALID,23.6434,VALID,42,VALID,0,
2009-12-15, 02:19:04,VALID,1004.1,VALID,0,VALID,94.7583,VALID,0.100563,VALID,23.6239,VALID,42,VALID,0,
2009-12-15, 02:20:04,VALID,1004.11,VALID,0,VALID,94.766,VALID,0,VALID,23.6452,VALID,42,VALID,0,
2009-12-15, 02:21:04,VALID,1004.12,VALID,0,VALID,94.7965,VALID,0,VALID,23.6452,VALID,42,VALID,0,
2009-12-15, 02:22:04,VALID,1004.13,VALID,0,VALID,94.8346,VALID,0,VALID,23.6452,VALID,42,VALID,0,
2009-12-15, 02:23:04,VALID,1004.11,VALID,0,VALID,94.8499,VALID,0,VALID,23.6239,VALID,42,VALID,0,
2009-12-15, 02:24:04,VALID,1004.11,VALID,0,VALID,94.8499,VALID,0,VALID,23.6044,VALID,42,VALID,0,
2009-12-15, 02:25:04,VALID,1004.12,VALID,0,VALID,94.8651,VALID,0,VALID,23.6257,VALID,42,VALID,0,
2009-12-15, 02:26:04,VALID,1004.13,VALID,0,VALID,94.8651,VALID,0,VALID,23.6257,VALID,42,VALID,0,
2009-12-15, 02:27:04,VALID,1004.13,VALID,0,VALID,94.8651,VALID,0,VALID,23.5868,VALID,42,VALID,0,
2009-12-15, 02:28:04,VALID,1004.1,VALID,0,VALID,94.8651,VALID,0,VALID,23.5655,VALID,42,VALID,0,
2009-12-15, 02:29:04,VALID,1004.1,VALID,0,VALID,94.8422,VALID,0,VALID,23.5478,VALID,42,VALID,0,
2009-12-15, 02:30:04,VALID,1004.08,VALID,0,VALID,94.8422,VALID,0,VALID,23.5284,VALID,42,VALID,0,
2009-12-15, 02:31:04,VALID,1004.06,VALID,0,VALID,94.8422,VALID,0,VALID,23.5071,VALID,42,VALID,0,
2009-12-15, 02:32:04,VALID,1004.06,VALID,0,VALID,94.8728,VALID,0,VALID,23.5089,VALID,42,VALID,0,
2009-12-15, 02:33:04,VALID,1004.08,VALID,0,VALID,94.8575,VALID,0,VALID,23.4894,VALID,42,VALID,0,
2009-12-15, 02:34:04,VALID,1004.07,VALID,0,VALID,94.8422,VALID,0,VALID,23.4682,VALID,42,VALID,0,
2009-12-15, 02:35:04,VALID,1004.07,VALID,0,VALID,94.8422,VALID,0,VALID,23.47,VALID,42,VALID,0,
2009-12-15, 02:36:04,VALID,1004.07,VALID,0,VALID,94.8499,VALID,0,VALID,23.4505,VALID,42,VALID,0,
2009-12-15, 02:37:04,VALID,1004.06,VALID,0,VALID,94.8499,VALID,0,VALID,23.4116,VALID,42,VALID,0,
2009-12-15, 02:38:04,VALID,1004.07,VALID,0,VALID,94.8499,VALID,0,VALID,23.4311,VALID,42,VALID,0,
2009-12-15, 02:39:04,VALID,1004.11,VALID,0,VALID,94.8651,VALID,0,VALID,23.4098,VALID,42,VALID,0,
2009-12-15, 02:40:04,VALID,1004.11,VALID,0,VALID,94.8804,VALID,0,VALID,23.4116,VALID,42,VALID,0,
2009-12-15, 02:41:04,VALID,1004.08,VALID,0,VALID,94.8956,VALID,0,VALID,23.4098,VALID,42,VALID,0,
2009-12-15, 02:42:04,VALID,1004.1,VALID,0,VALID,94.9185,VALID,0,VALID,23.3904,VALID,42,VALID,0,
2009-12-15, 02:43:04,VALID,1004.08,VALID,0,VALID,94.9109,VALID,0,VALID,23.3904,VALID,42,VALID,0,
2009-12-15, 02:44:04,VALID,1004.06,VALID,0,VALID,94.9033,VALID,0,VALID,23.3727,VALID,42,VALID,0,
2009-12-15, 02:45:04,VALID,1004.1,VALID,0,VALID,94.9185,VALID,0,VALID,23.3532,VALID,40,VALID,0,
2009-12-15, 02:46:04,VALID,1004.07,VALID,0,VALID,94.9414,VALID,0,VALID,23.3532,VALID,40,VALID,0,
2009-12-15, 02:47:04,VALID,1004.07,VALID,0,VALID,94.9567,VALID,0,VALID,23.3514,VALID,28,VALID,0,
2009-12-15, 02:48:04,VALID,1004.11,VALID,0,VALID,94.9872,VALID,0,VALID,23.3921,VALID,28,VALID,0,
2009-12-15, 02:49:04,VALID,1004.1,VALID,0,VALID,95.0024,VALID,0,VALID,23.3727,VALID,28,VALID,0,
2009-12-15, 02:50:04,VALID,1004.12,VALID,0,VALID,95.033,VALID,0,VALID,23.3921,VALID,19,VALID,0,
2009-12-15, 02:51:04,VALID,1004.12,VALID,0,VALID,95.033,VALID,0,VALID,23.3904,VALID,19,VALID,0,
2009-12-15, 02:52:04,VALID,1004.13,VALID,0,VALID,95.0635,VALID,0,VALID,23.3904,VALID,19,VALID,0,
2009-12-15, 02:53:04,VALID,1004.16,VALID,0,VALID,95.0864,VALID,0,VALID,23.4311,VALID,19,VALID,0,
2009-12-15, 02:54:04,VALID,1004.17,VALID,0,VALID,95.1016,VALID,0,VALID,23.4116,VALID,19,VALID,0,
2009-12-15, 02:55:04,VALID,1004.16,VALID,0,VALID,95.1093,VALID,0,VALID,23.4311,VALID,19,VALID,0,
2009-12-15, 02:56:04,VALID,1004.16,VALID,0,VALID,95.1321,VALID,0,VALID,23.4505,VALID,19,VALID,0,
2009-12-15, 02:57:04,VALID,1004.22,VALID,0,VALID,95.155,VALID,0,VALID,23.4505,VALID,19,VALID,0,
2009-12-15, 02:58:04,VALID,1004.2,VALID,0,VALID,95.1321,VALID,0,VALID,23.4311,VALID,19,VALID,0,
2009-12-15, 02:59:04,VALID,1004.22,VALID,0,VALID,95.1703,VALID,0,VALID,23.47,VALID,19,VALID,0,
2009-12-15, 03:00:04,VALID,1004.21,VALID,0,VALID,95.1932,VALID,0,VALID,23.4894,VALID,19,VALID,0,
2009-12-15, 03:01:04,VALID,1004.24,VALID,0,VALID,95.2084,VALID,0,VALID,23.5302,VALID,19,VALID,0,
2009-12-15, 03:02:04,VALID,1004.22,VALID,0,VALID,95.2237,VALID,0,VALID,23.5478,VALID,19,VALID,0,
2009-12-15, 03:03:04,VALID,1004.25,VALID,0,VALID,95.2389,VALID,0,VALID,23.5478,VALID,19,VALID,0,
2009-12-15, 03:04:04,VALID,1004.25,VALID,0,VALID,95.2618,VALID,0,VALID,23.5673,VALID,19,VALID,0,
2009-12-15, 03:05:04,VALID,1004.25,VALID,0,VALID,95.2542,VALID,0,VALID,23.5478,VALID,19,VALID,0,
2009-12-15, 03:06:04,VALID,1004.25,VALID,0,VALID,95.2389,VALID,0,VALID,23.5691,VALID,19,VALID,0,
2009-12-15, 03:07:04,VALID,1004.23,VALID,0,VALID,95.2466,VALID,0,VALID,23.5284,VALID,19,VALID,0,
2009-12-15, 03:08:04,VALID,1004.27,VALID,0,VALID,95.2389,VALID,0,VALID,23.5478,VALID,19,VALID,0,
2009-12-15, 03:09:04,VALID,1004.27,VALID,0,VALID,95.2542,VALID,0,VALID,23.5478,VALID,19,VALID,0,
2009-12-15, 03:10:04,VALID,1004.25,VALID,0,VALID,95.2389,VALID,0,VALID,23.5478,VALID,19,VALID,0,
2009-12-15, 03:11:04,VALID,1004.3,VALID,0,VALID,95.2618,VALID,0,VALID,23.5673,VALID,19,VALID,0,
2009-12-15, 03:12:04,VALID,1004.28,VALID,0,VALID,95.2542,VALID,0,VALID,23.5478,VALID,19,VALID,0,
2009-12-15, 03:13:04,VALID,1004.3,VALID,0,VALID,95.2313,VALID,0,VALID,23.5868,VALID,19,VALID,0,
2009-12-15, 03:14:04,VALID,1004.31,VALID,0,VALID,95.2161,VALID,0,VALID,23.5071,VALID,19,VALID,0,
2009-12-15, 03:15:04,VALID,1004.28,VALID,0,VALID,95.2161,VALID,0,VALID,23.5284,VALID,19,VALID,0,
2009-12-15, 03:16:04,VALID,1004.31,VALID,0,VALID,95.2389,VALID,0,VALID,23.5478,VALID,19,VALID,0,
2009-12-15, 03:17:04,VALID,1004.28,VALID,0,VALID,95.2237,VALID,0,VALID,23.5868,VALID,19,VALID,0,
2009-12-15, 03:18:04,VALID,1004.27,VALID,0,VALID,95.2389,VALID,0,VALID,23.5868,VALID,19,VALID,0,
2009-12-15, 03:19:04,VALID,1004.27,VALID,0,VALID,95.2237,VALID,0,VALID,23.5673,VALID,19,VALID,0,
2009-12-15, 03:20:04,VALID,1004.28,VALID,0,VALID,95.2237,VALID,0,VALID,23.5673,VALID,19,VALID,0,
2009-12-15, 03:21:04,VALID,1004.3,VALID,0,VALID,95.2161,VALID,0,VALID,23.546,VALID,19,VALID,0,
2009-12-15, 03:22:04,VALID,1004.29,VALID,0,VALID,95.2008,VALID,0,VALID,23.5673,VALID,19,VALID,0,
2009-12-15, 03:23:04,VALID,1004.3,VALID,0,VALID,95.2008,VALID,0,VALID,23.5868,VALID,19,VALID,0,
2009-12-15, 03:24:04,VALID,1004.33,VALID,0,VALID,95.2008,VALID,0,VALID,23.5266,VALID,19,VALID,0,
2009-12-15, 03:25:04,VALID,1004.34,VALID,0,VALID,95.1703,VALID,0,VALID,23.5071,VALID,19,VALID,0,
2009-12-15, 03:26:04,VALID,1004.35,VALID,0,VALID,95.1703,VALID,0,VALID,23.5089,VALID,19,VALID,0,
2009-12-15, 03:27:04,VALID,1004.4,VALID,0,VALID,95.1779,VALID,0,VALID,23.5302,VALID,19,VALID,0,
2009-12-15, 03:28:04,VALID,1004.39,VALID,0,VALID,95.155,VALID,0,VALID,23.5302,VALID,19,VALID,0,
2009-12-15, 03:29:04,VALID,1004.43,VALID,0,VALID,95.1627,VALID,0,VALID,23.5673,VALID,18,VALID,0,
2009-12-15, 03:30:04,VALID,1004.44,VALID,0,VALID,95.1627,VALID,0,VALID,23.585,VALID,18,VALID,0,
2009-12-15, 03:31:04,VALID,1004.46,VALID,0,VALID,95.1627,VALID,0,VALID,23.6044,VALID,18,VALID,0,
2009-12-15, 03:32:04,VALID,1004.46,VALID,0,VALID,95.1703,VALID,0,VALID,23.6239,VALID,18,VALID,0,
2009-12-15, 03:33:04,VALID,1004.42,VALID,0,VALID,95.155,VALID,0,VALID,23.6239,VALID,18,VALID,0,
2009-12-15, 03:34:04,VALID,1004.42,VALID,0,VALID,95.1321,VALID,0,VALID,23.6452,VALID,18,VALID,0,
2009-12-15, 03:35:04,VALID,1004.46,VALID,0,VALID,95.1169,VALID,0,VALID,23.6452,VALID,18,VALID,0,
2009-12-15, 03:36:04,VALID,1004.44,VALID,0,VALID,95.0864,VALID,0,VALID,23.6452,VALID,17,VALID,0,
2009-12-15, 03:37:04,VALID,1004.42,VALID,0,VALID,95.0711,VALID,0,VALID,23.6646,VALID,17,VALID,0,
2009-12-15, 03:38:04,VALID,1004.44,VALID,0,VALID,95.0482,VALID,0,VALID,23.6646,VALID,4,VALID,0,
2009-12-15, 03:39:04,VALID,1004.44,VALID,0,VALID,95.0406,VALID,0,VALID,23.7035,VALID,296,VALID,0,
2009-12-15, 03:40:04,VALID,1004.44,VALID,0,VALID,95.0101,VALID,0,VALID,23.7017,VALID,294,VALID,0,
2009-12-15, 03:41:04,VALID,1004.45,VALID,0,VALID,94.9796,VALID,0,VALID,23.7619,VALID,290,VALID,0.765234,
2009-12-15, 03:42:04,VALID,1004.48,VALID,0,VALID,94.9338,VALID,0,VALID,23.8203,VALID,288,VALID,0.701172,
2009-12-15, 03:43:04,VALID,1004.51,VALID,0,VALID,94.8194,VALID,0,VALID,23.8203,VALID,289,VALID,0.859375,
2009-12-15, 03:44:04,VALID,1004.51,VALID,0,VALID,94.6744,VALID,0,VALID,23.9159,VALID,275,VALID,0.316797,
2009-12-15, 03:45:04,VALID,1004.5,VALID,0,VALID,94.4608,VALID,0,VALID,23.9955,VALID,275,VALID,0.0863281,
2009-12-15, 03:46:04,VALID,1004.52,VALID,0,VALID,94.209,VALID,0,VALID,23.9937,VALID,268,VALID,0.100781,
2009-12-15, 03:47:04,VALID,1004.51,VALID,0,VALID,93.9268,VALID,0,VALID,24.0345,VALID,282,VALID,0.977344,
2009-12-15, 03:48:04,VALID,1004.54,VALID,0,VALID,93.5911,VALID,0,VALID,24.0734,VALID,293,VALID,1.24922,
2009-12-15, 03:49:04,VALID,1004.54,VALID,0,VALID,93.1181,VALID,0,VALID,24.1318,VALID,290,VALID,1.34727,
2009-12-15, 03:50:04,VALID,1004.58,VALID,0,VALID,92.5688,VALID,0,VALID,24.1902,VALID,309,VALID,0.0925781,
2009-12-15, 03:51:04,VALID,1004.6,VALID,0,VALID,91.9662,VALID,0,VALID,24.2468,VALID,277,VALID,0.244922,
2009-12-15, 03:52:04,VALID,1004.62,VALID,0,VALID,91.5847,VALID,0,VALID,24.307,VALID,287,VALID,0.721094,
2009-12-15, 03:53:04,VALID,1004.63,VALID,0,VALID,91.3406,VALID,0,VALID,24.3052,VALID,255,VALID,0.305078,
2009-12-15, 03:54:04,VALID,1004.67,VALID,0,VALID,91.1041,VALID,0,VALID,24.3052,VALID,292,VALID,1.13086,
2009-12-15, 03:55:04,VALID,1004.67,VALID,0,VALID,90.8829,VALID,0,VALID,24.3459,VALID,292,VALID,0.498047,
2009-12-15, 03:56:04,VALID,1004.66,VALID,0,VALID,90.715,VALID,0,VALID,24.3636,VALID,296,VALID,0.367969,
2009-12-15, 03:57:04,VALID,1004.66,VALID,0,VALID,90.6006,VALID,0,VALID,24.3849,VALID,311,VALID,0.402734,